Weather in Dzhalykovo

Russia / Republic of Kalmykia     45°36′30″N   47°26′02″E
temp.,
°C
wind,
m/s
gust,
m/s
humid.,
%
clouds,
%
prec.,
mm/h
press.,
hPa
HPBL,
m
9 may, sun
sun900:00+17se696099 0.0 1014380
03:00+16se811675 0.0 1012398
06:00+17se91368100 0.0 1011636
09:00+19se11156536 0.0 1011880
12:00+20se10136190 0.0 1010929
15:00+19se9126384 0.0 1009753
18:00+18sse7971100 0.0 1009700
21:00+17ssw4577100 0.0 1009718
10 may, mon
mon1000:00+11wnw141881100 0.4 1012882
03:00+10wnw111679100 1.3 1015858
06:00+10w111474100 0.4 10171225
09:00+11wnw111461100 0.8 10171437
12:00+14wnw91245100 0.1 10171895
15:00+16wnw9113697 0.1 10172560
18:00+16wnw793510 0.0 10172415
21:00+12w47504 0.0 1019231
11 may, tue
tue1100:00+10w45605 0.0 1020145
03:00+9wsw46705 0.0 1020145
06:00+10nnw236718 0.0 1021156
09:00+15e55505 0.0 1022985
12:00+17e785491 0.0 10211301
15:00+18e89456 0.0 10201924
18:00+17e78525 0.0 10201553
21:00+15ene56555 0.0 1019284
12 may, wed
wed1200:00+14ene45620 0.0 1018221
03:00+14ne45660 0.0 1017200
06:00+15ne34630 0.0 1018248
09:00+18ne33548 0.0 1018875
12:00+20ese345455 0.0 1017888
15:00+21se54560 0.0 1017931
18:00+19sse55700 0.0 1017538
21:00+17s45803 0.0 1017199
13 may, thu
thu1300:00+16s33860 0.0 1017101
03:00+16se33760 0.0 101697
06:00+17se12670 0.0 1017193
09:00+20ese345110 0.0 1017647
12:00+22ese56505 0.0 1017607
15:00+23ese57570 0.0 1016481
18:00+21ese57670 0.0 1016318
21:00+20se46740 0.0 1017123